Weather in Segovia

Spain     40°56′53″N   4°06′59″W
temp.,
°C
wind,
m/s
gust,
m/s
humid.,
%
clouds,
%
prec.,
mm/h
press.,
hPa
HPBL,
m
12 may, wed
wed1223:00+5s336883 0.0 102129
02:00+6ssw127668 0.0 1020108
05:00+6sse2383100 0.5 101772
08:00+6sw41389100 1.4 10171325
11:00+8w8137866 0.5 10181467
14:00+8w8128097 0.6 10181241
17:00+9w91270100 0.3 10181724
20:00+9wnw7106938 0.4 10181100
13 may, thu
thu1323:00+5wsw389146 0.1 1021254
02:00+5wsw359498 0.3 1021294
05:00+3sw359669 0.0 1021197
08:00+3sw369110 0.0 1020233
11:00+7wsw4680100 0.0 1019618
14:00+8wsw4982100 0.1 1017678
17:00+8wsw41193100 0.8 1016763
20:00+9w6139699 2.1 10151053
14 may, fri
fri1423:00+8w61199100 0.9 1016877
02:00+6wsw589796 1.3 1017531
05:00+5w4897100 0.3 1017658
08:00+5w3699100 0.4 1019499
11:00+5w3395100 0.2 1019466
14:00+9w346826 0.3 1018790
17:00+13w3651100 0.0 10161321
20:00+12w4859100 0.0 1017425
15 may, sat
sat1523:00+8sw34675 0.0 101944
02:00+7sw358414 0.0 101982
05:00+7sw3588100 0.0 1018116
08:00+8ssw3476100 0.0 1018101
11:00+13wsw5865100 0.0 1017704
14:00+17w696398 0.0 10161394
17:00+16w5874100 0.1 10161128
20:00+16w597156 0.3 1016584
16 may, sun
sun1623:00+12sw348758 0.0 101853
02:00+11sw359227 0.0 1018114
05:00+10ssw349167 0.0 101751
08:00+10sw237928 0.0 101757
11:00+15w46555 0.0 1017788
14:00+18wsw5848100 0.0 10161306
17:00+19w61052100 0.0 10141803
20:00+16wnw2577100 0.1 1015409